Location: Gollag?dem
(17.0207°N, 80.7261°E)
Time: 06:36:01
(UTC+00:00)

OAO 1 - Pass Details

Date: 03 August 2024
Orbit: 772 x 782 km, 35.0° (Epoch: 10 September)

Event Time Altitude Azimuth Distance (km) Brightness Sun altitude
Rises 14:44:14 0° 302° (WNW) 3,251 9.3 -21.9°
Reaches altitude 10° 14:46:42 10° 301° (WNW) 2,324 8.1 -22.4°
Maximum altitude 14:52:12 84° 214° (SW) 785 4.4 -23.6°
Enters shadow 14:53:10 62° 136° (SE) 873 4.4 -23.8°
